User: anonymous   Login
Location: Unspecified
(0.0000°N, 0.0000°E)
Time: 15:36:15
(UTC+00:00)
Language:

N. Korean satellite - Orbit

View from above orbital plane
View from above orbital plane
View from above satellite
View from above satellite

Ground track
Ground track

The orbit data is extracted from the following two-line orbital elements,

1 39026U 12072A   17141.63901408 +.00001911 +00000-0 +77059-4 0  9991
2 39026 097.2247 160.3913 0038762 271.2231 088.4567 15.25357808245889
Epoch (UTC): 21 May 2017 15:20:10
Eccentricity: 0.0038762
inclination: 97.2247°
perigee height: 463 km
apogee height: 516 km
right ascension of ascending node: 160.3913°
argument of perigee: 271.2231°
revolutions per day: 15.25357808
mean anomaly at epoch: 88.4567°
orbit number at epoch: 24588

The dashed part of the orbit path shows where the satellite is in the earth's shadow,  

DLR